Location: Lake of the Woods (North-East)
(49.6672°N, 94.8656°W)
Time: 07:10:00
(UTC-05:00)

Daily predictions for brighter satellites

Satellite Brightness Start Highest point End
(mag) Time Altitude Azimuth Time Altitude Azimuth Time Altitude Azimuth
Cosmos 1850 Rocket 4.2 21:33:13 10° NNW 21:38:32 67° ENE 21:43:51 10° SSE
Cosmos 2154 Rocket 4.0 21:32:58 10° S 21:39:07 70° E 21:45:18 10° NNE
Cosmos 1408 2.8 21:36:06 10° S 21:39:39 52° E 21:43:12 10° NNE
COS B Rocket 3.2 21:38:18 10° N 21:42:23 70° E 21:46:02 10° S
USA 229 DEB 3.9 21:35:30 10° NW 21:42:37 73° NE 21:49:47 10° SE
USA 229 4.0 21:35:36 10° NW 21:42:43 73° NE 21:49:53 10° SE
Cosmos 1954 Rocket 4.5 21:38:20 10° NNW 21:43:29 63° WSW 21:48:39 10° S
Okean 3 3.5 21:39:37 10° N 21:43:56 81° E 21:48:11 10° SSE
NOSS 2-2 (D) 4.5 21:41:20 10° WSW 21:45:36 60° NW 21:50:52 10° NE
Cosmos 1833 Rocket 2.9 21:50:09 10° NNW 21:55:44 59° ENE 22:01:16 10° SE
Cosmos 1825 2.2 21:53:12 10° S 21:57:01 85° E 22:00:52 10° N
Cosmos 1939 Rocket 3.6 21:54:12 10° S 21:58:01 53° W 22:01:55 10° NNW
MetOp-A 4.2 21:53:22 10° SSE 21:58:42 78° ENE 22:04:04 10° NNW
Cosmos 1741 Rocket 4.0 21:54:56 10° NNW 22:00:12 88° WSW 22:05:26 10° SSE
Cosmos 1844 Rocket 3.4 21:58:04 10° SW 22:03:40 60° WNW 22:09:15 10° NNE
SL-8 R/B 3.7 21:59:04 10° W 22:03:54 77° S 22:08:43 10° E
Cosmos 2278 Rocket 2.2 22:00:14 10° SSW 22:05:54 81° ESE 22:11:38 10° NNE
Cosmos 1844 4.2 22:06:26 10° SW 22:12:12 68° WNW 22:18:01 10° NNE
Okean 2 Rocket 3.0 22:07:54 10° S 22:12:18 80° E 22:16:44 10° NNE
PSLV R/B 3.3 22:11:11 10° S 22:14:08 70° WSW 22:17:05 10° NNW
CZ-4 SHROUD 3.4 22:14:30 10° S 22:17:35 68° WSW 22:20:41 10° NNW
Envisat 4.0 22:14:35 10° S 22:19:27 46° W 22:24:22 10° NNW
Cosmos 614 Rocket 4.2 22:14:45 10° NNW 22:19:50 67° WSW 22:24:50 10° S
Cosmos 1782 Rocket 3.9 22:15:30 10° SSW 22:19:57 73° W 22:24:28 10° N
ATLAS 2AS CENTAUR R/B 4.3 22:13:26 10° NW 22:20:54 36° NNE 22:28:12 10° E
Cosmos 2082 Rocket 2.3 22:15:51 10° NNW 22:21:35 78° WSW 22:26:48 12° SSE
Meteor 2-13 Rocket 4.5 22:15:47 10° S 22:21:57 85° E 22:28:09 10° N
Cosmos 1812 3.4 22:21:01 10° N 22:24:41 39° ENE 22:27:16 17° SE
SL-08 RB Rocket 3.8 22:21:37 13° SSE 22:25:39 68° ENE 22:30:19 10° N
Cosmos 2084 3.8 22:23:02 10° SW 22:26:51 61° NW 22:30:40 10° NE
Landsat 7 4.2 22:23:52 15° SE 22:27:41 52° ENE 22:32:19 10° N
Meteor 1-18 Rocket 4.4 22:22:28 10° N 22:28:24 71° ENE 22:33:37 14° SSE
NOSS 3-1 (C) 4.2 22:22:38 10° NW 22:29:51 65° NE 22:37:00 14° ESE
Cosmos 1975 Rocket 4.2 22:26:03 10° NNW 22:30:08 41° W 22:34:12 10° SSW
Cosmos 1420 Rocket 4.1 22:27:25 10° SSW 22:32:40 83° WNW 22:37:55 10° NNE
APEX 3.7 22:29:16 10° SSW 22:33:32 83° ESE 22:39:12 10° NNE
AVUM R/B 3.5 22:30:37 10° NW 22:34:09 72° WSW 22:36:29 19° SSE
Cosmos 2218 Rocket 4.1 22:28:14 10° S 22:34:36 74° E 22:41:00 10° NNE
CARTOSAT-1 4.2 22:32:45 17° SE 22:35:41 43° ENE 22:39:48 10° N
BREEZE-M TANK 3.7 22:24:45 10° W 22:38:56 62° S 22:42:07 15° ESE
Meteor 1-14 Rocket 4.2 22:33:26 10° S 22:39:05 83° E 22:44:41 10° NNE
BREEZE-M DEB 4.1 22:35:55 10° WSW 22:39:49 67° SSE 22:42:05 13° E
Cosmos 1486 Rocket 4.4 22:35:40 10° NNW 22:40:56 55° ENE 22:44:40 19° SE
ISS -3.5 22:38:23 10° WSW 22:41:39 81° SSE 22:44:55 10° ENE
USA 234 4.4 22:37:26 10° E 22:41:58 20° ESE 22:43:56 17° SE
Cosmos 1536 Rocket 3.6 22:38:37 10° N 22:43:09 88° WSW 22:46:40 16° S
Terra 2.2 22:40:06 19° SE 22:43:23 52° ENE 22:48:01 10° N
Cosmos 1727 Rocket 4.0 22:37:13 10° N 22:43:26 84° E 22:48:46 15° S
Cosmos 2297 3.7 22:37:46 10° SSW 22:43:28 82° ESE 22:49:16 10° NNE
CZ-4B R/B 3.3 22:39:03 10° NNE 22:44:02 74° ESE 22:48:50 10° S
Meteor 2-8 Rocket 4.5 22:38:15 10° N 22:44:27 86° E 22:49:44 15° S
Cosmos 1959 Rocket 4.4 22:39:07 10° S 22:45:14 86° E 22:51:23 10° N
Intercosmos 25 3.7 22:43:59 10° SSW 22:47:12 51° WNW 22:50:23 10° N
NOAA 11 4.4 22:43:03 13° S 22:48:03 71° WSW 22:53:36 10° NNW
DELTA 2 DEB (DPAF) 4.1 22:45:28 19° SSE 22:48:37 76° ENE 22:53:07 10° NNW
Cosmos 2084 Rocket 4.5 22:45:10 10° NNW 22:48:42 34° NE 22:51:40 14° E
H-2A R/B 2.1 22:51:51 19° SSE 22:55:44 78° ENE 23:01:01 10° NNW
Lacrosse 5 rocket 2.5 22:57:31 21° ESE 22:57:31 21° ESE 22:59:34 10° ENE
Spot 4 4.1 22:58:36 23° SE 23:01:32 59° ENE 23:06:19 10° N
IGS 5A 3.5 23:01:46 26° SSE 23:04:03 71° ENE 23:08:13 10° N
Meteor 1-11 Rocket 4.5 23:01:37 22° SE 23:04:40 37° E 23:09:54 10° NNE
Cosmos 1633 4.2 23:09:39 20° E 23:10:04 20° E 23:12:50 10° NE
Gbstr 26 Del rocket 3.5 23:07:22 10° WNW 23:12:21 50° SSW 23:14:16 29° SSE
Cosmos 2369 Rocket 3.4 23:11:23 21° ESE 23:12:43 24° ESE 23:17:05 10° NE
Lacrosse 5 2.6 23:10:52 24° SSE 23:12:44 31° SE 23:17:12 10° ENE
Cosmos 1025 Rocket 3.7 23:09:25 10° N 23:13:37 42° ENE 23:15:28 28° SE
ARGOS 4.0 23:09:19 12° SSW 23:13:58 43° W 23:19:05 10° NNW
CZ-4C R/B 3.8 23:14:35 23° S 23:16:55 57° W 23:21:05 10° NNW
Cosmos 2151 Rocket 4.5 23:14:31 10° SSW 23:18:56 50° WNW 23:23:22 10° N
Cosmos 1821 Rocket 4.4 23:17:02 24° SSE 23:20:25 46° E 23:26:18 10° NNE
Cosmos 1400 Rocket 3.5 23:25:09 33° SE 23:26:10 39° E 23:30:04 10° NNE
ASTEX 1 3.4 23:23:30 10° N 23:28:28 73° E 23:31:04 28° S
BREEZE-M DEB (TANK) 4.0 23:25:03 10° W 23:28:49 90° NE 23:42:13 10° E
Meteor 1-19 Rocket 4.3 23:22:58 10° N 23:28:52 74° ENE 23:32:00 29° SSE
Cosmos 1300 Rocket 3.6 23:26:15 24° S 23:28:54 86° WNW 23:33:23 10° N
Iridium 4 Rocket 4.0 23:23:21 10° N 23:29:11 57° E 23:32:10 28° SSE
Cosmos 1934 Rocket 4.4 23:26:34 27° SE 23:29:27 45° E 23:35:11 10° NNE
Cosmos 1536 3.5 23:28:53 32° ESE 23:29:39 36° E 23:33:20 10° NNE
Cosmos 2123 Rocket 4.3 23:27:34 10° N 23:33:45 55° ENE 23:36:59 28° SE
Okean 1 Rocket 3.1 23:33:27 27° SSW 23:35:54 85° W 23:40:24 10° N
Meteor 1-20 Rocket 4.5 23:32:20 13° SSW 23:37:19 65° WNW 23:42:49 10° N
ALOS 2 4.2 23:35:44 18° E 23:37:33 24° ENE 23:41:05 10° N
SAR-Lupe-2 3.7 23:37:30 42° S 23:38:34 68° WSW 23:42:09 10° NNW
Cosmos 1833 Rocket 4.2 23:34:41 10° NW 23:39:17 26° WSW 23:42:58 14° SSW
Timation 1 Rocket 4.4 23:34:06 10° SW 23:40:07 79° WNW 23:46:10 10° NNE
Cosmos 1943 Rocket 3.8 23:40:42 17° ESE 23:41:09 17° E 23:44:36 10° ENE
SL-8 R/B 3.6 23:41:35 10° W 23:46:22 65° SSW 23:48:18 34° SE
Okean 1-7 Rocket 4.3 23:44:10 10° NNW 23:48:29 47° W 23:50:37 26° SSW
Cosmos 1503 Rocket 4.0 23:44:04 10° NNW 23:49:20 83° WSW 23:51:35 36° SSE
Cosmos 1331 Rocket 4.3 23:45:45 11° SW 23:50:37 65° WNW 23:55:46 10° NNE
CZ-4B R/B 3.2 23:57:07 19° ENE 23:57:25 19° ENE 23:59:45 10° NNE
